Vertical_Velocity
-0 -1 -2 3 5 13 10 -1 2 -1 3 4 2 3 1 0 -0 -1 1 0 1 -2 1 0 0 1 -1 0 -1 -1 0 -1 -1 -0 -1 -1 -2 -0
-1 1 -0 -3 -0 2 1 1 -0 0 1 3 9 -2 -1 0 -1 2 3 -1 -1 -1 -1 0 0 -2 -0 -1 -2 -1 1 1 -2 -2 -1 -2 0 1
-3 -5 -6 -2 -0 -3 -1 3 2 3 5 1 3 4 6 4 1 2 -2 0 0 1 -1 1 -3 -5 -1 4 4 3 -0 -1 -2 1 0 -1 -2 -1
-1 -2 -0 -1 6 2 -1 2 4 3 10 3 9 6 3 5 2 3 4 2 2 -2 -1 -3 -1 1 2 -0 -3 -3 0 1 1 -0 -1 2 0 -3
1 1 -2 -6 3 3 8 4 7 17 11 3 2 1 2 1 -0 -1 4 5 -7 2 -3 -1 1 1 0 -0 -1 0 0 -1 2 2 0 1 -1 -1
-0 -1 1 -6 -5 0 5 4 6 9 2 -1 3 5 5 4 2 1 1 1 -9 1 -0 1 -2 1 -0 0 2 -3 0 1 -1 0 1 3 -1 0
1 1 -1 -1 -2 1 4 7 5 4 3 7 2 -5 -6 -3 0 2 3 -3 -2 2 -0 2 1 0 -2 1 1 -1 -1 5 4 1 -2 3 5 -1
1 2 -1 0 -0 0 -0 9 12 10 9 -1 1 4 10 2 1 2 3 -1 -0 1 1 -0 -2 -1 -1 -1 -1 -0 1 1 2 -1 -2 -1 -0 1
2 1 3 0 -2 -2 1 2 -0 4 4 -6 4 4 3 0 -1 1 -1 -3 1 -1 -1 -1 2 -0 0 3 3 1 1 2 2 0 -2 -3 -2 -1
1 1 3 5 1 1 0 -1 3 3 2 2 2 2 2 -1 -0 -0 -1 -3 -3 -4 -3 -3 2 2 1 -0 2 3 1 -1 -2 4 -1 1 1 3
-2 2 4 2 5 1 0 2 0 -1 1 3 1 -1 1 0 0 1 2 0 -1 -2 -1 -2 4 -3 -2 -1 -3 0 1 0 -3 4 1 2 0 3
-1 -2 -0 0 3 0 0 1 0 -1 1 2 1 1 0 2 2 1 2 1 1 -1 2 -7 0 2 2 10 -1 4 5 0 1 3 1 -2 -3 -2
-3 3 -0 1 1 -0 4 3 2 1 0 -1 -1 -0 0 3 -1 1 0 1 1 3 4 5 10 2 3 6 -1 5 -1 2 -1 -2 -1 3 5 2
-1 3 -1 0 -1 -1 3 -0 2 -4 -2 1 1 2 0 1 1 1 1 6 4 4 4 5 2 3 -1 -0 -3 -1 -1 -2 3 -3 -1 1 2 -2
1 10 -4 2 -0 -1 11 -8 -0 2 5 2 -1 4 3 4 4 2 4 6 8 6 4 6 2 0 -2 -2 -1 -1 4 0 0 -1 -2 -0 -1 -1
10 12 -3 14 5 -4 11 8 13 11 6 3 0 8 3 2 3 5 2 5 3 3 6 -1 6 2 2 6 6 -0 3 1 1 -1 -3 -3 0 1
8 4 -2 11 -1 1 -5 9 4 6 9 9 -3 0 -3 4 14 4 6 10 3 -1 -2 2 3 9 7 3 3 2 2 1 -0 -2 -1 -4 3 0
0 -5 -4 -2 -0 -0 -1 -1 0 -0 1 2 1 1 0 5 5 5 3 0 -1 -1 -2 0 4 3 4 3 1 -1 1 -2 -1 1 3 2 -10 1
1 -3 1 1 -3 -3 -0 1 1 1 2 2 3 4 4 6 4 2 3 2 2 3 3 3 -2 -0 -0 -1 1 4 1 1 1 -4 -0 -3 7 -6
4 -3 6 -1 -1 -1 3 4 5 4 4 1 1 1 3 3 3 6 3 2 -1 -3 -0 2 1 -0 -2 -1 -1 -3 6 -2 -4 -5 2 -8 -5 8
-1 0 -1 -3 1 1 2 -0 -2 -1 -2 -4 -1 -0 -3 -4 -4 -2 -0 0 1 -2 -1 -0 -2 0 1 2 2 -2 -8 4 3 -0 5 -3 -3 -7
-1 0 1 -0 1 -2 -1 -1 -0 1 2 -1 2 4 0 -1 -0 -0 -1 4 3 1 3 3 0 -1 2 1 -2 -0 -1 -6 -4 -5 2 2 3 -1
-1 -0 0 1 1 1 -1 2 -0 2 2 -0 1 3 2 -1 2 -0 -0 1 3 2 2 1 -0 -2 -1 -2 -1 -1 -1 -1 0 -7 -16 5 3 -1
Height
5697 5694 5691 5691 5694 5695 5700 5704 5707 5710 5714 5715 5717 5718 5719 5723 5725 5727 5730 5732 5733 5734 5734 5734 5734 5734 5734 5735 5736 5735 5736 5736 5735 5734 5733 5732 5731 5731
5690 5688 5685 5684 5685 5689 5692 5696 5700 5703 5705 5708 5710 5709 5711 5714 5717 5720 5721 5722 5724 5725 5725 5725 5725 5726 5726 5726 5727 5728 5729 5728 5727 5725 5725 5725 5724 5724
5683 5680 5679 5678 5680 5682 5686 5689 5692 5695 5697 5700 5702 5704 5705 5707 5709 5711 5712 5714 5715 5717 5716 5716 5717 5717 5719 5719 5720 5721 5720 5719 5719 5718 5717 5717 5716 5715
5677 5675 5673 5671 5672 5675 5678 5682 5685 5687 5691 5692 5695 5697 5699 5700 5702 5703 5704 5706 5707 5707 5706 5708 5709 5710 5711 5711 5711 5711 5711 5711 5710 5709 5708 5708 5706 5705
5670 5669 5668 5666 5667 5669 5671 5673 5677 5680 5683 5684 5687 5689 5690 5692 5693 5694 5696 5697 5698 5699 5700 5701 5702 5702 5702 5704 5703 5703 5703 5703 5702 5702 5699 5699 5697 5696
5662 5662 5662 5662 5662 5663 5664 5666 5670 5673 5675 5677 5679 5680 5682 5683 5685 5687 5688 5689 5689 5690 5692 5692 5692 5693 5693 5694 5694 5694 5693 5693 5691 5691 5689 5688 5687 5686
5653 5655 5655 5655 5656 5658 5658 5660 5663 5666 5668 5669 5671 5672 5674 5676 5676 5678 5679 5680 5679 5680 5682 5682 5683 5684 5684 5684 5684 5684 5683 5682 5681 5680 5678 5677 5674 5672
5646 5647 5648 5649 5650 5651 5653 5654 5657 5658 5659 5661 5663 5665 5666 5666 5666 5668 5669 5669 5670 5671 5671 5673 5673 5673 5673 5672 5673 5672 5672 5670 5668 5666 5664 5663 5661 5658
5638 5639 5640 5641 5642 5644 5645 5647 5649 5650 5651 5653 5654 5656 5657 5657 5658 5659 5660 5661 5661 5661 5662 5662 5663 5662 5662 5662 5661 5659 5658 5657 5655 5653 5651 5648 5645 5643
5628 5629 5630 5632 5634 5636 5637 5638 5640 5641 5642 5643 5644 5646 5648 5649 5649 5649 5649 5650 5650 5650 5650 5650 5650 5650 5649 5647 5646 5645 5644 5642 5640 5638 5635 5633 5630 5628
5616 5618 5620 5621 5624 5626 5627 5629 5630 5630 5631 5633 5633 5634 5636 5637 5638 5638 5638 5637 5637 5637 5637 5636 5636 5635 5634 5632 5630 5628 5628 5625 5623 5621 5618 5616 5613 5609
5606 5607 5607 5609 5611 5613 5615 5617 5618 5619 5620 5621 5622 5623 5624 5624 5625 5625 5625 5625 5624 5623 5622 5621 5621 5620 5618 5616 5613 5612 5611 5608 5605 5603 5600 5596 5594 5590
5593 5594 5597 5597 5598 5599 5600 5602 5604 5606 5607 5608 5609 5609 5609 5609 5610 5610 5610 5610 5609 5607 5607 5605 5604 5603 5601 5600 5599 5596 5592 5589 5586 5584 5582 5578 5574 5570
5579 5580 5582 5584 5585 5585 5587 5586 5587 5588 5589 5591 5592 5594 5594 5593 5592 5593 5594 5592 5592 5592 5591 5589 5587 5585 5584 5582 5580 5576 5574 5570 5569 5566 5562 5559 5554 5550
5561 5563 5566 5567 5570 5571 5569 5570 5571 5572 5574 5574 5575 5576 5577 5577 5575 5575 5575 5575 5574 5573 5572 5570 5569 5567 5565 5562 5561 5557 5556 5552 5549 5545 5542 5539 5535 5529
5545 5545 5550 5550 5552 5555 5556 5557 5557 5557 5557 5558 5557 5558 5558 5557 5555 5556 5555 5556 5554 5553 5553 5551 5550 5547 5545 5543 5541 5538 5535 5533 5529 5525 5521 5519 5514 5508
5526 5528 5532 5532 5534 5535 5537 5539 5539 5539 5540 5540 5540 5539 5539 5540 5539 5538 5537 5538 5536 5535 5534 5532 5530 5528 5526 5524 5522 5519 5516 5513 5510 5506 5502 5498 5495 5487
5511 5513 5513 5513 5514 5516 5517 5518 5519 5519 5520 5521 5521 5521 5520 5519 5519 5519 5518 5518 5516 5516 5515 5513 5512 5510 5507 5504 5501 5499 5497 5495 5492 5488 5483 5476 5470 5467
5499 5499 5500 5499 5500 5499 5499 5499 5500 5501 5501 5501 5501 5501 5500 5499 5499 5498 5498 5497 5496 5496 5495 5495 5493 5490 5487 5485 5485 5482 5479 5476 5471 5466 5462 5457 5450 5441
5484 5485 5485 5486 5486 5486 5487 5487 5486 5486 5486 5485 5484 5483 5483 5483 5483 5482 5480 5480 5480 5478 5477 5475 5473 5472 5470 5468 5464 5462 5459 5453 5448 5444 5439 5431 5428 5422
5470 5470 5470 5470 5469 5469 5470 5470 5471 5470 5470 5469 5468 5468 5467 5467 5467 5465 5464 5463 5462 5461 5460 5458 5457 5454 5450 5447 5443 5438 5435 5432 5427 5423 5418 5409 5402 5398
5454 5453 5453 5453 5453 5454 5454 5454 5454 5453 5453 5452 5452 5452 5452 5450 5449 5448 5447 5447 5445 5443 5441 5438 5435 5433 5430 5426 5422 5418 5412 5407 5403 5400 5399 5391 5382 5374
5436 5436 5436 5436 5436 5436 5437 5437 5436 5436 5436 5435 5434 5433 5432 5431 5430 5429 5428 5426 5424 5422 5420 5417 5414 5412 5409 5405 5401 5397 5392 5386 5380 5372 5369 5369 5359 5351